segment_id,date_local,uptime,ped_lft,ped_rgt,ped_total,bike_lft,bike_rgt,bike_total,car_lft,car_rgt,car_total,heavy_lft,heavy_rgt,heavy_total,v85,car_speed0,car_speed10,car_speed20,car_speed30,car_speed40,car_speed50,car_speed60,car_speed70
100024661,2022-12-01 00:00,1.0,,,,36,28,64,,,,,,,
100024661,2022-12-01 01:00,1.0,,,,15,9,24,,,,,,,
100024661,2022-12-01 02:00,1.0,,,,12,3,15,,,,,,,
100024661,2022-12-01 03:00,1.0,,,,7,7,14,,,,,,,
100024661,2022-12-01 04:00,1.0,,,,9,9,18,,,,,,,
100024661,2022-12-01 05:00,1.0,,,,8,26,34,,,,,,,
100024661,2022-12-01 06:00,1.0,,,,41,67,108,,,,,,,
100024661,2022-12-01 07:00,1.0,,,,118,188,306,,,,,,,
100024661,2022-12-01 08:00,1.0,,,,274,478,752,,,,,,,
100024661,2022-12-01 09:00,1.0,,,,240,386,626,,,,,,,
100024661,2022-12-01 10:00,1.0,,,,126,176,302,,,,,,,
100024661,2022-12-01 11:00,1.0,,,,132,132,264,,,,,,,
100024661,2022-12-01 12:00,1.0,,,,161,166,327,,,,,,,
100024661,2022-12-01 13:00,1.0,,,,149,150,299,,,,,,,
100024661,2022-12-01 14:00,1.0,,,,192,189,381,,,,,,,
100024661,2022-12-01 15:00,1.0,,,,270,193,463,,,,,,,
100024661,2022-12-01 16:00,1.0,,,,294,172,466,,,,,,,
100024661,2022-12-01 17:00,1.0,,,,359,248,607,,,,,,,
100024661,2022-12-01 18:00,1.0,,,,392,262,654,,,,,,,
100024661,2022-12-01 19:00,1.0,,,,257,225,482,,,,,,,
100024661,2022-12-01 20:00,1.0,,,,139,121,260,,,,,,,
100024661,2022-12-01 21:00,1.0,,,,102,96,198,,,,,,,
100024661,2022-12-01 22:00,1.0,,,,97,63,160,,,,,,,
100024661,2022-12-01 23:00,1.0,,,,66,64,130,,,,,,,
100024661,2022-12-02 00:00,1.0,,,,44,40,84,,,,,,,
100024661,2022-12-02 01:00,1.0,,,,12,22,34,,,,,,,
100024661,2022-12-02 02:00,1.0,,,,12,10,22,,,,,,,
100024661,2022-12-02 03:00,1.0,,,,5,5,10,,,,,,,
100024661,2022-12-02 04:00,1.0,,,,8,8,16,,,,,,,
100024661,2022-12-02 05:00,1.0,,,,10,16,26,,,,,,,
100024661,2022-12-02 06:00,1.0,,,,26,38,64,,,,,,,
100024661,2022-12-02 07:00,1.0,,,,90,145,235,,,,,,,
100024661,2022-12-02 08:00,1.0,,,,171,282,453,,,,,,,
100024661,2022-12-02 09:00,1.0,,,,202,248,450,,,,,,,
100024661,2022-12-02 10:00,1.0,,,,111,138,249,,,,,,,
100024661,2022-12-02 11:00,1.0,,,,121,128,249,,,,,,,
100024661,2022-12-02 12:00,1.0,,,,170,123,293,,,,,,,
100024661,2022-12-02 13:00,1.0,,,,197,167,364,,,,,,,
100024661,2022-12-02 14:00,1.0,,,,175,163,338,,,,,,,
100024661,2022-12-02 15:00,1.0,,,,225,229,454,,,,,,,
100024661,2022-12-02 16:00,1.0,,,,218,176,394,,,,,,,
100024661,2022-12-02 17:00,1.0,,,,263,169,432,,,,,,,
100024661,2022-12-02 18:00,1.0,,,,262,189,451,,,,,,,
100024661,2022-12-02 19:00,1.0,,,,178,165,343,,,,,,,
100024661,2022-12-02 20:00,1.0,,,,122,118,240,,,,,,,
100024661,2022-12-02 21:00,1.0,,,,84,81,165,,,,,,,
100024661,2022-12-02 22:00,1.0,,,,66,68,134,,,,,,,
100024661,2022-12-02 23:00,1.0,,,,63,65,128,,,,,,,
100024661,2022-12-03 00:00,1.0,,,,39,38,77,,,,,,,
100024661,2022-12-03 01:00,1.0,,,,34,32,66,,,,,,,
100024661,2022-12-03 02:00,1.0,,,,34,20,54,,,,,,,
100024661,2022-12-03 03:00,1.0,,,,23,14,37,,,,,,,
100024661,2022-12-03 04:00,1.0,,,,7,13,20,,,,,,,
100024661,2022-12-03 05:00,1.0,,,,5,8,13,,,,,,,
100024661,2022-12-03 06:00,1.0,,,,15,10,25,,,,,,,
100024661,2022-12-03 07:00,1.0,,,,12,10,22,,,,,,,
100024661,2022-12-03 08:00,1.0,,,,18,19,37,,,,,,,
100024661,2022-12-03 09:00,1.0,,,,44,35,79,,,,,,,
100024661,2022-12-03 10:00,1.0,,,,41,41,82,,,,,,,
100024661,2022-12-03 11:00,1.0,,,,63,57,120,,,,,,,
100024661,2022-12-03 12:00,1.0,,,,91,67,158,,,,,,,
100024661,2022-12-03 13:00,1.0,,,,104,73,177,,,,,,,
100024661,2022-12-03 14:00,1.0,,,,99,63,162,,,,,,,
100024661,2022-12-03 15:00,1.0,,,,89,60,149,,,,,,,
100024661,2022-12-03 16:00,1.0,,,,89,75,164,,,,,,,
100024661,2022-12-03 17:00,1.0,,,,99,79,178,,,,,,,
100024661,2022-12-03 18:00,1.0,,,,114,88,202,,,,,,,
100024661,2022-12-03 19:00,1.0,,,,103,85,188,,,,,,,
100024661,2022-12-03 20:00,1.0,,,,55,63,118,,,,,,,
100024661,2022-12-03 21:00,1.0,,,,39,53,92,,,,,,,
100024661,2022-12-03 22:00,1.0,,,,47,44,91,,,,,,,
100024661,2022-12-03 23:00,1.0,,,,31,39,70,,,,,,,
100024661,2022-12-04 00:00,1.0,,,,28,33,61,,,,,,,
100024661,2022-12-04 01:00,1.0,,,,24,17,41,,,,,,,
100024661,2022-12-04 02:00,1.0,,,,20,24,44,,,,,,,
100024661,2022-12-04 03:00,1.0,,,,17,9,26,,,,,,,
100024661,2022-12-04 04:00,1.0,,,,12,11,23,,,,,,,
100024661,2022-12-04 05:00,1.0,,,,9,11,20,,,,,,,
100024661,2022-12-04 06:00,1.0,,,,13,4,17,,,,,,,
100024661,2022-12-04 07:00,1.0,,,,9,15,24,,,,,,,
100024661,2022-12-04 08:00,1.0,,,,15,16,31,,,,,,,
100024661,2022-12-04 09:00,1.0,,,,30,29,59,,,,,,,
100024661,2022-12-04 10:00,1.0,,,,41,39,80,,,,,,,
100024661,2022-12-04 11:00,1.0,,,,50,48,98,,,,,,,
100024661,2022-12-04 12:00,1.0,,,,73,69,142,,,,,,,
100024661,2022-12-04 13:00,1.0,,,,93,73,166,,,,,,,
100024661,2022-12-04 14:00,1.0,,,,78,99,177,,,,,,,
100024661,2022-12-04 15:00,1.0,,,,113,94,207,,,,,,,
100024661,2022-12-04 16:00,1.0,,,,97,84,181,,,,,,,
100024661,2022-12-04 17:00,1.0,,,,125,83,208,,,,,,,
100024661,2022-12-04 18:00,1.0,,,,82,99,181,,,,,,,
100024661,2022-12-04 19:00,1.0,,,,73,74,147,,,,,,,
100024661,2022-12-04 20:00,1.0,,,,62,63,125,,,,,,,
100024661,2022-12-04 21:00,1.0,,,,58,49,107,,,,,,,
100024661,2022-12-04 22:00,1.0,,,,44,45,89,,,,,,,
100024661,2022-12-04 23:00,1.0,,,,25,30,55,,,,,,,
100024661,2022-12-05 00:00,1.0,,,,13,12,25,,,,,,,
100024661,2022-12-05 01:00,1.0,,,,10,6,16,,,,,,,
100024661,2022-12-05 02:00,1.0,,,,3,2,5,,,,,,,
100024661,2022-12-05 03:00,1.0,,,,6,5,11,,,,,,,
100024661,2022-12-05 04:00,1.0,,,,4,6,10,,,,,,,
100024661,2022-12-05 05:00,1.0,,,,10,19,29,,,,,,,
100024661,2022-12-05 06:00,1.0,,,,33,43,76,,,,,,,
100024661,2022-12-05 07:00,1.0,,,,80,144,224,,,,,,,
100024661,2022-12-05 08:00,1.0,,,,195,387,582,,,,,,,
100024661,2022-12-05 09:00,1.0,,,,185,256,441,,,,,,,
100024661,2022-12-05 10:00,1.0,,,,99,108,207,,,,,,,
100024661,2022-12-05 11:00,1.0,,,,93,107,200,,,,,,,
100024661,2022-12-05 12:00,1.0,,,,116,96,212,,,,,,,
100024661,2022-12-05 13:00,1.0,,,,112,104,216,,,,,,,
100024661,2022-12-05 14:00,1.0,,,,128,115,243,,,,,,,
100024661,2022-12-05 15:00,1.0,,,,198,148,346,,,,,,,
100024661,2022-12-05 16:00,1.0,,,,232,154,386,,,,,,,
100024661,2022-12-05 17:00,1.0,,,,311,198,509,,,,,,,
100024661,2022-12-05 18:00,1.0,,,,335,246,581,,,,,,,
100024661,2022-12-05 19:00,1.0,,,,219,210,429,,,,,,,
100024661,2022-12-05 20:00,1.0,,,,116,114,230,,,,,,,
100024661,2022-12-05 21:00,1.0,,,,108,85,193,,,,,,,
100024661,2022-12-05 22:00,1.0,,,,95,52,147,,,,,,,
100024661,2022-12-05 23:00,1.0,,,,37,43,80,,,,,,,
100024661,2022-12-06 00:00,1.0,,,,22,21,43,,,,,,,
100024661,2022-12-06 01:00,1.0,,,,10,7,17,,,,,,,
100024661,2022-12-06 02:00,1.0,,,,4,8,12,,,,,,,
100024661,2022-12-06 03:00,1.0,,,,3,4,7,,,,,,,
100024661,2022-12-06 04:00,1.0,,,,5,5,10,,,,,,,
100024661,2022-12-06 05:00,1.0,,,,13,19,32,,,,,,,
100024661,2022-12-06 06:00,1.0,,,,24,51,75,,,,,,,
100024661,2022-12-06 07:00,1.0,,,,106,205,311,,,,,,,
100024661,2022-12-06 08:00,1.0,,,,249,455,704,,,,,,,
100024661,2022-12-06 09:00,1.0,,,,259,361,620,,,,,,,
100024661,2022-12-06 10:00,1.0,,,,124,152,276,,,,,,,
100024661,2022-12-06 11:00,1.0,,,,129,121,250,,,,,,,
100024661,2022-12-06 12:00,1.0,,,,136,145,281,,,,,,,
100024661,2022-12-06 13:00,1.0,,,,137,138,275,,,,,,,
100024661,2022-12-06 14:00,1.0,,,,173,171,344,,,,,,,
100024661,2022-12-06 15:00,1.0,,,,261,191,452,,,,,,,
100024661,2022-12-06 16:00,1.0,,,,243,174,417,,,,,,,
100024661,2022-12-06 17:00,1.0,,,,349,246,595,,,,,,,
100024661,2022-12-06 18:00,1.0,,,,363,241,604,,,,,,,
100024661,2022-12-06 19:00,1.0,,,,234,192,426,,,,,,,
100024661,2022-12-06 20:00,1.0,,,,136,127,263,,,,,,,
100024661,2022-12-06 21:00,1.0,,,,95,95,190,,,,,,,
100024661,2022-12-06 22:00,1.0,,,,81,66,147,,,,,,,
100024661,2022-12-06 23:00,1.0,,,,52,42,94,,,,,,,
100024661,2022-12-07 00:00,1.0,,,,15,26,41,,,,,,,
100024661,2022-12-07 01:00,1.0,,,,10,12,22,,,,,,,
100024661,2022-12-07 02:00,1.0,,,,6,6,12,,,,,,,
100024661,2022-12-07 03:00,1.0,,,,4,3,7,,,,,,,
100024661,2022-12-07 04:00,1.0,,,,3,8,11,,,,,,,
100024661,2022-12-07 05:00,1.0,,,,10,19,29,,,,,,,
100024661,2022-12-07 06:00,1.0,,,,31,55,86,,,,,,,
100024661,2022-12-07 07:00,1.0,,,,99,163,262,,,,,,,
100024661,2022-12-07 08:00,1.0,,,,219,446,665,,,,,,,
100024661,2022-12-07 09:00,1.0,,,,201,349,550,,,,,,,
100024661,2022-12-07 10:00,1.0,,,,134,162,296,,,,,,,
100024661,2022-12-07 11:00,1.0,,,,113,127,240,,,,,,,
100024661,2022-12-07 12:00,1.0,,,,145,126,271,,,,,,,
100024661,2022-12-07 13:00,1.0,,,,146,159,305,,,,,,,
100024661,2022-12-07 14:00,1.0,,,,167,135,302,,,,,,,
100024661,2022-12-07 15:00,1.0,,,,290,177,467,,,,,,,
100024661,2022-12-07 16:00,1.0,,,,267,158,425,,,,,,,
100024661,2022-12-07 17:00,1.0,,,,355,235,590,,,,,,,
100024661,2022-12-07 18:00,1.0,,,,379,270,649,,,,,,,
100024661,2022-12-07 19:00,1.0,,,,261,213,474,,,,,,,
100024661,2022-12-07 20:00,1.0,,,,166,131,297,,,,,,,
100024661,2022-12-07 21:00,1.0,,,,117,119,236,,,,,,,
100024661,2022-12-07 22:00,1.0,,,,106,78,184,,,,,,,
100024661,2022-12-07 23:00,1.0,,,,72,53,125,,,,,,,
100024661,2022-12-08 00:00,1.0,,,,31,36,67,,,,,,,
100024661,2022-12-08 01:00,1.0,,,,13,16,29,,,,,,,
100024661,2022-12-08 02:00,1.0,,,,9,8,17,,,,,,,
100024661,2022-12-08 03:00,1.0,,,,6,3,9,,,,,,,
100024661,2022-12-08 04:00,1.0,,,,6,4,10,,,,,,,
100024661,2022-12-08 05:00,1.0,,,,10,17,27,,,,,,,
100024661,2022-12-08 06:00,1.0,,,,28,58,86,,,,,,,
100024661,2022-12-08 07:00,1.0,,,,100,138,238,,,,,,,
100024661,2022-12-08 08:00,1.0,,,,221,396,617,,,,,,,
100024661,2022-12-08 09:00,1.0,,,,214,318,532,,,,,,,
100024661,2022-12-08 10:00,1.0,,,,122,134,256,,,,,,,
100024661,2022-12-08 11:00,1.0,,,,105,110,215,,,,,,,
100024661,2022-12-08 12:00,1.0,,,,123,110,233,,,,,,,
100024661,2022-12-08 13:00,1.0,,,,113,114,227,,,,,,,
100024661,2022-12-08 14:00,1.0,,,,136,105,241,,,,,,,
100024661,2022-12-08 15:00,1.0,,,,232,151,383,,,,,,,
100024661,2022-12-08 16:00,1.0,,,,193,167,360,,,,,,,
100024661,2022-12-08 17:00,1.0,,,,275,206,481,,,,,,,
100024661,2022-12-08 18:00,1.0,,,,329,266,595,,,,,,,
100024661,2022-12-08 19:00,1.0,,,,233,175,408,,,,,,,
100024661,2022-12-08 20:00,1.0,,,,129,128,257,,,,,,,
100024661,2022-12-08 21:00,1.0,,,,120,105,225,,,,,,,
100024661,2022-12-08 22:00,1.0,,,,79,73,152,,,,,,,
100024661,2022-12-08 23:00,1.0,,,,66,57,123,,,,,,,
100024661,2022-12-09 00:00,1.0,,,,42,34,76,,,,,,,
100024661,2022-12-09 01:00,1.0,,,,22,20,42,,,,,,,
100024661,2022-12-09 02:00,1.0,,,,10,17,27,,,,,,,
100024661,2022-12-09 03:00,1.0,,,,7,9,16,,,,,,,
100024661,2022-12-09 04:00,1.0,,,,8,6,14,,,,,,,
100024661,2022-12-09 05:00,1.0,,,,10,15,25,,,,,,,
100024661,2022-12-09 06:00,1.0,,,,33,36,69,,,,,,,
100024661,2022-12-09 07:00,1.0,,,,83,114,197,,,,,,,
100024661,2022-12-09 08:00,1.0,,,,164,290,454,,,,,,,
100024661,2022-12-09 09:00,1.0,,,,174,243,417,,,,,,,
100024661,2022-12-09 10:00,1.0,,,,144,145,289,,,,,,,
100024661,2022-12-09 11:00,1.0,,,,146,139,285,,,,,,,
100024661,2022-12-09 12:00,1.0,,,,146,130,276,,,,,,,
100024661,2022-12-09 13:00,1.0,,,,170,134,304,,,,,,,
100024661,2022-12-09 14:00,1.0,,,,145,166,311,,,,,,,
100024661,2022-12-09 15:00,1.0,,,,216,157,373,,,,,,,
100024661,2022-12-09 16:00,1.0,,,,197,177,374,,,,,,,
100024661,2022-12-09 17:00,1.0,,,,233,164,397,,,,,,,
100024661,2022-12-09 18:00,1.0,,,,221,186,407,,,,,,,
100024661,2022-12-09 19:00,1.0,,,,172,161,333,,,,,,,
100024661,2022-12-09 20:00,1.0,,,,109,102,211,,,,,,,
100024661,2022-12-09 21:00,1.0,,,,65,71,136,,,,,,,
100024661,2022-12-09 22:00,1.0,,,,70,74,144,,,,,,,
100024661,2022-12-09 23:00,1.0,,,,65,72,137,,,,,,,
100024661,2022-12-10 00:00,1.0,,,,51,50,101,,,,,,,
100024661,2022-12-10 01:00,1.0,,,,33,37,70,,,,,,,
100024661,2022-12-10 02:00,1.0,,,,28,18,46,,,,,,,
100024661,2022-12-10 03:00,1.0,,,,9,15,24,,,,,,,
100024661,2022-12-10 04:00,1.0,,,,20,9,29,,,,,,,
100024661,2022-12-10 05:00,1.0,,,,5,8,13,,,,,,,
100024661,2022-12-10 06:00,1.0,,,,9,9,18,,,,,,,
100024661,2022-12-10 07:00,1.0,,,,9,16,25,,,,,,,
100024661,2022-12-10 08:00,1.0,,,,30,31,61,,,,,,,
100024661,2022-12-10 09:00,1.0,,,,56,61,117,,,,,,,
100024661,2022-12-10 10:00,1.0,,,,79,78,157,,,,,,,
100024661,2022-12-10 11:00,1.0,,,,101,93,194,,,,,,,
100024661,2022-12-10 12:00,1.0,,,,112,93,205,,,,,,,
100024661,2022-12-10 13:00,1.0,,,,122,119,241,,,,,,,
100024661,2022-12-10 14:00,1.0,,,,129,120,249,,,,,,,
100024661,2022-12-10 15:00,1.0,,,,141,133,274,,,,,,,
100024661,2022-12-10 16:00,1.0,,,,123,98,221,,,,,,,
100024661,2022-12-10 17:00,1.0,,,,113,118,231,,,,,,,
100024661,2022-12-10 18:00,1.0,,,,110,122,232,,,,,,,
100024661,2022-12-10 19:00,1.0,,,,105,111,216,,,,,,,
100024661,2022-12-10 20:00,1.0,,,,62,63,125,,,,,,,
100024661,2022-12-10 21:00,1.0,,,,47,56,103,,,,,,,
100024661,2022-12-10 22:00,1.0,,,,37,59,96,,,,,,,
100024661,2022-12-10 23:00,1.0,,,,28,61,89,,,,,,,
100024661,2022-12-11 00:00,1.0,,,,41,44,85,,,,,,,
100024661,2022-12-11 01:00,1.0,,,,27,21,48,,,,,,,
100024661,2022-12-11 02:00,1.0,,,,15,19,34,,,,,,,
100024661,2022-12-11 03:00,1.0,,,,10,13,23,,,,,,,
100024661,2022-12-11 04:00,1.0,,,,14,9,23,,,,,,,
100024661,2022-12-11 05:00,1.0,,,,13,6,19,,,,,,,
100024661,2022-12-11 06:00,1.0,,,,4,7,11,,,,,,,
100024661,2022-12-11 07:00,1.0,,,,8,7,15,,,,,,,
100024661,2022-12-11 08:00,1.0,,,,17,17,34,,,,,,,
100024661,2022-12-11 09:00,1.0,,,,20,33,53,,,,,,,
100024661,2022-12-11 10:00,1.0,,,,35,38,73,,,,,,,
100024661,2022-12-11 11:00,1.0,,,,39,40,79,,,,,,,
100024661,2022-12-11 12:00,1.0,,,,51,60,111,,,,,,,
100024661,2022-12-11 13:00,1.0,,,,75,70,145,,,,,,,
100024661,2022-12-11 14:00,1.0,,,,62,66,128,,,,,,,
100024661,2022-12-11 15:00,1.0,,,,111,98,209,,,,,,,
100024661,2022-12-11 16:00,1.0,,,,87,68,155,,,,,,,
100024661,2022-12-11 17:00,1.0,,,,95,74,169,,,,,,,
100024661,2022-12-11 18:00,1.0,,,,105,66,171,,,,,,,
100024661,2022-12-11 19:00,1.0,,,,61,80,141,,,,,,,
100024661,2022-12-11 20:00,1.0,,,,53,62,115,,,,,,,
100024661,2022-12-11 21:00,1.0,,,,53,43,96,,,,,,,
100024661,2022-12-11 22:00,1.0,,,,38,38,76,,,,,,,
100024661,2022-12-11 23:00,1.0,,,,18,19,37,,,,,,,
100024661,2022-12-12 00:00,1.0,,,,18,6,24,,,,,,,
100024661,2022-12-12 01:00,1.0,,,,7,9,16,,,,,,,
100024661,2022-12-12 02:00,1.0,,,,4,8,12,,,,,,,
100024661,2022-12-12 03:00,1.0,,,,4,2,6,,,,,,,
100024661,2022-12-12 04:00,1.0,,,,4,8,12,,,,,,,
100024661,2022-12-12 05:00,1.0,,,,14,18,32,,,,,,,
100024661,2022-12-12 06:00,1.0,,,,30,43,73,,,,,,,
100024661,2022-12-12 07:00,1.0,,,,86,131,217,,,,,,,
100024661,2022-12-12 08:00,1.0,,,,190,342,532,,,,,,,
100024661,2022-12-12 09:00,1.0,,,,196,261,457,,,,,,,
100024661,2022-12-12 10:00,1.0,,,,101,101,202,,,,,,,
100024661,2022-12-12 11:00,1.0,,,,107,87,194,,,,,,,
100024661,2022-12-12 12:00,1.0,,,,105,125,230,,,,,,,
100024661,2022-12-12 13:00,1.0,,,,128,120,248,,,,,,,
100024661,2022-12-12 14:00,1.0,,,,139,125,264,,,,,,,
100024661,2022-12-12 15:00,1.0,,,,202,171,373,,,,,,,
100024661,2022-12-12 16:00,1.0,,,,231,135,366,,,,,,,
100024661,2022-12-12 17:00,1.0,,,,261,172,433,,,,,,,
100024661,2022-12-12 18:00,1.0,,,,307,204,511,,,,,,,
100024661,2022-12-12 19:00,1.0,,,,189,187,376,,,,,,,
100024661,2022-12-12 20:00,1.0,,,,124,108,232,,,,,,,
100024661,2022-12-12 21:00,1.0,,,,102,78,180,,,,,,,
100024661,2022-12-12 22:00,1.0,,,,84,55,139,,,,,,,
100024661,2022-12-12 23:00,1.0,,,,56,37,93,,,,,,,
100024661,2022-12-13 00:00,1.0,,,,28,23,51,,,,,,,
100024661,2022-12-13 01:00,1.0,,,,7,6,13,,,,,,,
100024661,2022-12-13 02:00,1.0,,,,3,3,6,,,,,,,
100024661,2022-12-13 03:00,1.0,,,,5,2,7,,,,,,,
100024661,2022-12-13 04:00,1.0,,,,6,9,15,,,,,,,
100024661,2022-12-13 05:00,1.0,,,,15,17,32,,,,,,,
100024661,2022-12-13 06:00,1.0,,,,27,51,78,,,,,,,
100024661,2022-12-13 07:00,1.0,,,,96,163,259,,,,,,,
100024661,2022-12-13 08:00,1.0,,,,223,439,662,,,,,,,
100024661,2022-12-13 09:00,1.0,,,,187,314,501,,,,,,,
100024661,2022-12-13 10:00,1.0,,,,117,121,238,,,,,,,
100024661,2022-12-13 11:00,1.0,,,,111,105,216,,,,,,,
100024661,2022-12-13 12:00,1.0,,,,125,134,259,,,,,,,
100024661,2022-12-13 13:00,1.0,,,,153,143,296,,,,,,,
100024661,2022-12-13 14:00,1.0,,,,168,157,325,,,,,,,
100024661,2022-12-13 15:00,1.0,,,,234,150,384,,,,,,,
100024661,2022-12-13 16:00,1.0,,,,232,173,405,,,,,,,
100024661,2022-12-13 17:00,1.0,,,,296,209,505,,,,,,,
100024661,2022-12-13 18:00,1.0,,,,344,237,581,,,,,,,
100024661,2022-12-13 19:00,1.0,,,,216,183,399,,,,,,,
100024661,2022-12-13 20:00,1.0,,,,132,111,243,,,,,,,
100024661,2022-12-13 21:00,1.0,,,,84,48,132,,,,,,,
100024661,2022-12-13 22:00,1.0,,,,82,70,152,,,,,,,
100024661,2022-12-13 23:00,1.0,,,,51,48,99,,,,,,,
100024661,2022-12-14 00:00,1.0,,,,17,18,35,,,,,,,
100024661,2022-12-14 01:00,1.0,,,,11,14,25,,,,,,,
100024661,2022-12-14 02:00,1.0,,,,7,3,10,,,,,,,
100024661,2022-12-14 03:00,1.0,,,,3,3,6,,,,,,,
100024661,2022-12-14 04:00,1.0,,,,1,9,10,,,,,,,
100024661,2022-12-14 05:00,1.0,,,,8,15,23,,,,,,,
100024661,2022-12-14 06:00,1.0,,,,30,44,74,,,,,,,
100024661,2022-12-14 07:00,1.0,,,,78,130,208,,,,,,,
100024661,2022-12-14 08:00,1.0,,,,182,360,542,,,,,,,
100024661,2022-12-14 09:00,1.0,,,,181,278,459,,,,,,,
100024661,2022-12-14 10:00,1.0,,,,123,147,270,,,,,,,
100024661,2022-12-14 11:00,1.0,,,,100,113,213,,,,,,,
100024661,2022-12-14 12:00,1.0,,,,132,138,270,,,,,,,
100024661,2022-12-14 13:00,1.0,,,,156,118,274,,,,,,,
100024661,2022-12-14 14:00,1.0,,,,147,118,265,,,,,,,
100024661,2022-12-14 15:00,1.0,,,,204,170,374,,,,,,,
100024661,2022-12-14 16:00,1.0,,,,231,155,386,,,,,,,
100024661,2022-12-14 17:00,1.0,,,,277,187,464,,,,,,,
100024661,2022-12-14 18:00,1.0,,,,290,213,503,,,,,,,
100024661,2022-12-14 19:00,1.0,,,,201,161,362,,,,,,,
100024661,2022-12-14 20:00,1.0,,,,97,110,207,,,,,,,
100024661,2022-12-14 21:00,1.0,,,,78,74,152,,,,,,,
100024661,2022-12-14 22:00,1.0,,,,86,59,145,,,,,,,
100024661,2022-12-14 23:00,1.0,,,,45,48,93,,,,,,,
100024661,2022-12-15 00:00,1.0,,,,24,32,56,,,,,,,
100024661,2022-12-15 01:00,1.0,,,,11,13,24,,,,,,,
100024661,2022-12-15 02:00,1.0,,,,7,1,8,,,,,,,
100024661,2022-12-15 03:00,1.0,,,,7,3,10,,,,,,,
100024661,2022-12-15 04:00,1.0,,,,7,7,14,,,,,,,
100024661,2022-12-15 05:00,1.0,,,,10,15,25,,,,,,,
100024661,2022-12-15 06:00,1.0,,,,23,46,69,,,,,,,
100024661,2022-12-15 07:00,1.0,,,,81,105,186,,,,,,,
100024661,2022-12-15 08:00,1.0,,,,176,318,494,,,,,,,
100024661,2022-12-15 09:00,1.0,,,,162,216,378,,,,,,,
100024661,2022-12-15 10:00,1.0,,,,94,94,188,,,,,,,
100024661,2022-12-15 11:00,1.0,,,,91,101,192,,,,,,,
100024661,2022-12-15 12:00,1.0,,,,101,115,216,,,,,,,
100024661,2022-12-15 13:00,1.0,,,,137,131,268,,,,,,,
100024661,2022-12-15 14:00,1.0,,,,157,120,277,,,,,,,
100024661,2022-12-15 15:00,1.0,,,,198,156,354,,,,,,,
100024661,2022-12-15 16:00,1.0,,,,177,134,311,,,,,,,
100024661,2022-12-15 17:00,1.0,,,,202,164,366,,,,,,,
100024661,2022-12-15 18:00,1.0,,,,278,170,448,,,,,,,
100024661,2022-12-15 19:00,1.0,,,,196,151,347,,,,,,,
100024661,2022-12-15 20:00,1.0,,,,93,95,188,,,,,,,
100024661,2022-12-15 21:00,1.0,,,,67,64,131,,,,,,,
100024661,2022-12-15 22:00,1.0,,,,67,63,130,,,,,,,
100024661,2022-12-15 23:00,1.0,,,,52,39,91,,,,,,,
100024661,2022-12-16 00:00,1.0,,,,28,30,58,,,,,,,
100024661,2022-12-16 01:00,1.0,,,,15,15,30,,,,,,,
100024661,2022-12-16 02:00,1.0,,,,6,7,13,,,,,,,
100024661,2022-12-16 03:00,1.0,,,,3,8,11,,,,,,,
100024661,2022-12-16 04:00,1.0,,,,5,7,12,,,,,,,
100024661,2022-12-16 05:00,1.0,,,,7,15,22,,,,,,,
100024661,2022-12-16 06:00,1.0,,,,17,31,48,,,,,,,
100024661,2022-12-16 07:00,1.0,,,,64,97,161,,,,,,,
100024661,2022-12-16 08:00,1.0,,,,123,200,323,,,,,,,
100024661,2022-12-16 09:00,1.0,,,,127,182,309,,,,,,,
100024661,2022-12-16 10:00,1.0,,,,102,88,190,,,,,,,
100024661,2022-12-16 11:00,1.0,,,,107,112,219,,,,,,,
100024661,2022-12-16 12:00,1.0,,,,123,118,241,,,,,,,
100024661,2022-12-16 13:00,1.0,,,,129,126,255,,,,,,,
100024661,2022-12-16 14:00,1.0,,,,163,110,273,,,,,,,
100024661,2022-12-16 15:00,1.0,,,,188,126,314,,,,,,,
100024661,2022-12-16 16:00,1.0,,,,181,123,304,,,,,,,
100024661,2022-12-16 17:00,1.0,,,,175,131,306,,,,,,,
100024661,2022-12-16 18:00,1.0,,,,174,135,309,,,,,,,
100024661,2022-12-16 19:00,1.0,,,,127,115,242,,,,,,,
100024661,2022-12-16 20:00,1.0,,,,85,87,172,,,,,,,
100024661,2022-12-16 21:00,1.0,,,,59,55,114,,,,,,,
100024661,2022-12-16 22:00,1.0,,,,57,50,107,,,,,,,
100024661,2022-12-16 23:00,1.0,,,,49,49,98,,,,,,,
100024661,2022-12-17 00:00,1.0,,,,47,28,75,,,,,,,
100024661,2022-12-17 01:00,1.0,,,,32,35,67,,,,,,,
100024661,2022-12-17 02:00,1.0,,,,9,11,20,,,,,,,
100024661,2022-12-17 03:00,1.0,,,,13,13,26,,,,,,,
100024661,2022-12-17 04:00,1.0,,,,14,3,17,,,,,,,
100024661,2022-12-17 05:00,1.0,,,,6,8,14,,,,,,,
100024661,2022-12-17 06:00,1.0,,,,9,5,14,,,,,,,
100024661,2022-12-17 07:00,1.0,,,,11,8,19,,,,,,,
100024661,2022-12-17 08:00,1.0,,,,14,17,31,,,,,,,
100024661,2022-12-17 09:00,1.0,,,,38,41,79,,,,,,,
100024661,2022-12-17 10:00,1.0,,,,62,40,102,,,,,,,
100024661,2022-12-17 11:00,1.0,,,,88,71,159,,,,,,,
100024661,2022-12-17 12:00,1.0,,,,98,75,173,,,,,,,
100024661,2022-12-17 13:00,1.0,,,,118,111,229,,,,,,,
100024661,2022-12-17 14:00,1.0,,,,117,104,221,,,,,,,
100024661,2022-12-17 15:00,1.0,,,,129,117,246,,,,,,,
100024661,2022-12-17 16:00,1.0,,,,103,98,201,,,,,,,
100024661,2022-12-17 17:00,1.0,,,,117,96,213,,,,,,,
100024661,2022-12-17 18:00,1.0,,,,117,100,217,,,,,,,
100024661,2022-12-17 19:00,1.0,,,,90,91,181,,,,,,,
100024661,2022-12-17 20:00,1.0,,,,50,87,137,,,,,,,
100024661,2022-12-17 21:00,1.0,,,,35,46,81,,,,,,,
100024661,2022-12-17 22:00,1.0,,,,35,23,58,,,,,,,
100024661,2022-12-17 23:00,1.0,,,,31,36,67,,,,,,,
100024661,2022-12-18 00:00,1.0,,,,29,20,49,,,,,,,
100024661,2022-12-18 01:00,1.0,,,,23,24,47,,,,,,,
100024661,2022-12-18 02:00,1.0,,,,14,14,28,,,,,,,
100024661,2022-12-18 03:00,1.0,,,,11,11,22,,,,,,,
100024661,2022-12-18 04:00,1.0,,,,16,0,16,,,,,,,
100024661,2022-12-18 05:00,1.0,,,,7,3,10,,,,,,,
100024661,2022-12-18 06:00,1.0,,,,5,4,9,,,,,,,
100024661,2022-12-18 07:00,1.0,,,,10,9,19,,,,,,,
100024661,2022-12-18 08:00,1.0,,,,16,8,24,,,,,,,
100024661,2022-12-18 09:00,1.0,,,,31,14,45,,,,,,,
100024661,2022-12-18 10:00,1.0,,,,36,29,65,,,,,,,
100024661,2022-12-18 11:00,1.0,,,,36,39,75,,,,,,,
100024661,2022-12-18 12:00,1.0,,,,48,48,96,,,,,,,
100024661,2022-12-18 13:00,1.0,,,,54,57,111,,,,,,,
100024661,2022-12-18 14:00,1.0,,,,66,76,142,,,,,,,
100024661,2022-12-18 15:00,1.0,,,,79,84,163,,,,,,,
100024661,2022-12-18 16:00,1.0,,,,57,47,104,,,,,,,
100024661,2022-12-18 17:00,1.0,,,,47,45,92,,,,,,,
100024661,2022-12-18 18:00,1.0,,,,52,52,104,,,,,,,
100024661,2022-12-18 19:00,1.0,,,,51,42,93,,,,,,,
100024661,2022-12-18 20:00,1.0,,,,32,34,66,,,,,,,
100024661,2022-12-18 21:00,1.0,,,,48,28,76,,,,,,,
100024661,2022-12-18 22:00,1.0,,,,27,26,53,,,,,,,
100024661,2022-12-18 23:00,1.0,,,,11,19,30,,,,,,,
100024661,2022-12-19 00:00,1.0,,,,8,9,17,,,,,,,
100024661,2022-12-19 01:00,1.0,,,,3,8,11,,,,,,,
100024661,2022-12-19 02:00,1.0,,,,6,4,10,,,,,,,
100024661,2022-12-19 03:00,1.0,,,,4,2,6,,,,,,,
100024661,2022-12-19 04:00,1.0,,,,3,4,7,,,,,,,
100024661,2022-12-19 05:00,1.0,,,,11,14,25,,,,,,,
100024661,2022-12-19 06:00,1.0,,,,14,38,52,,,,,,,
100024661,2022-12-19 07:00,1.0,,,,60,94,154,,,,,,,
100024661,2022-12-19 08:00,1.0,,,,134,231,365,,,,,,,
100024661,2022-12-19 09:00,1.0,,,,123,173,296,,,,,,,
100024661,2022-12-19 10:00,1.0,,,,72,89,161,,,,,,,
100024661,2022-12-19 11:00,1.0,,,,86,88,174,,,,,,,
100024661,2022-12-19 12:00,1.0,,,,107,92,199,,,,,,,
100024661,2022-12-19 13:00,1.0,,,,84,75,159,,,,,,,
100024661,2022-12-19 14:00,1.0,,,,73,82,155,,,,,,,
100024661,2022-12-19 15:00,1.0,,,,117,77,194,,,,,,,
100024661,2022-12-19 16:00,1.0,,,,115,58,173,,,,,,,
100024661,2022-12-19 17:00,1.0,,,,156,83,239,,,,,,,
100024661,2022-12-19 18:00,1.0,,,,143,104,247,,,,,,,
100024661,2022-12-19 19:00,1.0,,,,82,72,154,,,,,,,
100024661,2022-12-19 20:00,1.0,,,,51,55,106,,,,,,,
100024661,2022-12-19 21:00,1.0,,,,59,40,99,,,,,,,
100024661,2022-12-19 22:00,1.0,,,,51,31,82,,,,,,,
100024661,2022-12-19 23:00,1.0,,,,28,15,43,,,,,,,